Location: Unspecified
(48.7670°N, 0.0000°E)
Time: 04:01:30
(UTC+00:00)

Vanguard 2 Rocket - Pass Details

Date: 26 June 2019
Orbit: 554 x 3326 km, 32.9° (Epoch: 18 July)

Event Time Altitude Azimuth Distance (km) Brightness Sun altitude
Rises 00:06:36 0° 257° (WSW) 4,534 10.3 -17.9°
Reaches altitude 10° 00:09:31 10° 248° (WSW) 3,887 9.9 -17.8°
Maximum altitude 00:18:57 34° 188° (S) 3,285 9.1 -17.8°
Drops below altitude 10° 00:33:17 10° 133° (SE) 5,899 10.7 -17.5°
Sets 00:39:03 0° 126° (SE) 7,160 11.2 -17.4°
